This demonstration page uses our WeatherBlox Daily Observations layout. Learn more.

Left ArrowRight Arrow

39.01783, -85.05884

Hourly Observations for October 14, 2020

Temp ( °F °C ) Dew Point ( °F °C ) Humidity (%) Winds ( mph kmh ) Pressure ( in mb ) Visibility ( mi km ) Precip ( " mm )
12:52 am 00:52 Clear 53 11.7 40 4.4 61 61 SSW 8 13 30.05 1018 10 16.0934 0 0
1:52 am 01:52 Mostly Clear 52 11.1 40 4.4 64 64 SSW 8 13 30.04 1017 10 16.0934 0 0
2:52 am 02:52 Clear 52 11.1 40 4.4 64 64 SSW 7 11 30.05 1018 10 16.0934 0 0
3:52 am 03:52 Mostly Clear 51 10.6 40 4.4 66 66 SSW 5 7 30.05 1018 10 16.0934 0 0
4:52 am 04:52 Mostly Clear 51 10.6 40 4.4 66 66 SW 5 7 30.05 1018 10 16.0934 0 0
5:52 am 05:52 Mostly Clear 50 10 40 4.4 68 68 SW 5 7 30.06 1018 10 16.0934 0 0
6:52 am 06:52 Partly Cloudy 48 8.9 41 5 77 77 S 3 6 30.07 1018 10 16.0934 0 0
7:52 am 07:52 Partly Cloudy 45 7.2 42 5.6 90 90 Calm 30.07 1018 10 16.0934 0 0
8:52 am 08:52 Partly Cloudy 49 9.4 43 6.1 80 80 SSE 3 6 30.06 1018 10 16.0934 0 0
9:52 am 09:52 Partly Cloudy 55 12.8 43 6.1 64 64 SSW 6 9 30.07 1018 10 16.0934 0 0
10:52 am 10:52 Mostly Cloudy 60 15.6 44 6.7 56 56 VRB 3 6 30.07 1018 10 16.0934 0 0
11:52 am 11:52 Mostly Cloudy 66 18.9 44 6.7 45 45 S 9 15 30.04 1017 10 16.0934 0 0
12:52 pm 12:52 Cloudy 69 20.6 44 6.7 41 41 S 15 24 30.01 1016 10 16.0934 0 0
1:52 pm 13:52 Mostly Cloudy 72 22.2 44 6.7 37 37 S 13 20 29.98 1015 10 16.0934 0 0
2:52 pm 14:52 Mostly Cloudy 75 23.9 43 6.1 32 32 SSW 14 22 29.93 1014 10 16.0934 0 0
3:52 pm 15:52 Partly Cloudy 76 24.4 43 6.1 31 31 S 13 20 29.89 1012 10 16.0934 0 0
4:52 pm 16:52 Mostly Cloudy 76 24.4 42 5.6 30 30 S 17 28 29.86 1011 10 16.0934 0 0
5:52 pm 17:52 Partly Cloudy 75 23.9 40 4.4 28 28 S 16 26 29.84 1011 10 16.0934 0 0
6:52 pm 18:52 Partly Cloudy 69 20.6 42 5.6 38 38 S 12 19 29.83 1010 10 16.0934 0 0
7:52 pm 19:52 Mostly Clear 65 18.3 43 6.1 45 45 S 10 17 29.83 1010 10 16.0934 0 0
8:52 pm 20:52 Mostly Clear 66 18.9 43 6.1 43 43 S 15 24 29.8 1009 10 16.0934 0 0
9:52 pm 21:52 Mostly Clear 66 18.9 43 6.1 43 43 S 14 22 29.78 1009 10 16.0934 0 0
10:52 pm 22:52 Mostly Clear 67 19.4 44 6.7 44 44 S 15 24 29.78 1008 10 16.0934 0 0
11:52 pm 23:52 Mostly Clear 65 18.3 45 7.2 49 49 SSW 14 22 29.77 1008 10 16.0934 0 0

Powered by AerisWeather